TimeCST,TemperatureF,Dew PointF,Humidity,Sea Level PressureIn,VisibilityMPH,Wind Direction,Wind SpeedMPH,Gust SpeedMPH,PrecipitationIn,Events,Conditions,WindDirDegrees,DateUTC
12:54 AM,21.9,19.0,89,30.17,4.0,Calm,Calm,-,N/A,,Clear,0,2013-01-09 06:54:00
1:54 AM,21.9,19.0,89,30.21,5.0,SW,5.8,-,N/A,,Clear,230,2013-01-09 07:54:00
2:54 AM,32.0,25.0,75,30.22,10.0,NNW,4.6,-,N/A,,Clear,330,2013-01-09 08:54:00
3:54 AM,28.9,23.0,78,30.25,10.0,WNW,3.5,-,N/A,,Clear,300,2013-01-09 09:54:00
4:54 AM,23.0,19.0,85,30.27,10.0,South,3.5,-,N/A,,Clear,190,2013-01-09 10:54:00
5:54 AM,18.0,14.0,84,30.26,9.0,Calm,Calm,-,N/A,,Clear,0,2013-01-09 11:54:00
6:54 AM,12.9,10.9,92,30.30,3.0,SSE,5.8,-,N/A,,Clear,160,2013-01-09 12:54:00
7:54 AM,16.0,12.9,88,30.33,10.0,SW,3.5,-,N/A,,Clear,230,2013-01-09 13:54:00
8:54 AM,19.9,16.0,85,30.41,10.0,SSW,15.0,-,N/A,,Clear,200,2013-01-09 14:54:00
9:54 AM,30.0,24.1,79,30.45,10.0,SW,9.2,-,N/A,,Clear,220,2013-01-09 15:54:00
10:54 AM,32.0,25.0,75,30.45,10.0,WSW,6.9,-,N/A,,Clear,250,2013-01-09 16:54:00
11:54 AM,34.0,28.0,79,30.44,10.0,East,3.5,-,N/A,,Clear,90,2013-01-09 17:54:00
12:54 PM,35.1,28.0,76,30.41,10.0,SSE,4.6,-,N/A,,Clear,160,2013-01-09 18:54:00
1:54 PM,36.0,28.9,76,30.38,10.0,ESE,3.5,-,N/A,,Clear,120,2013-01-09 19:54:00
2:54 PM,37.0,30.0,76,30.36,10.0,SSE,3.5,-,N/A,,Clear,150,2013-01-09 20:54:00
3:54 PM,35.1,30.0,82,30.38,7.0,SSE,4.6,-,N/A,,Clear,160,2013-01-09 21:54:00
4:54 PM,30.9,27.0,85,30.37,6.0,South,5.8,-,N/A,,Clear,190,2013-01-09 22:54:00
5:54 PM,30.0,26.1,85,30.38,5.0,South,5.8,-,N/A,,Clear,190,2013-01-09 23:54:00
6:54 PM,28.0,24.1,85,30.38,6.0,South,6.9,-,N/A,,Clear,170,2013-01-10 00:54:00
7:54 PM,28.0,25.0,88,30.37,4.0,SSE,9.2,-,N/A,,Clear,160,2013-01-10 01:54:00
8:54 PM,26.1,23.0,88,30.37,4.0,SSW,4.6,-,N/A,,Clear,200,2013-01-10 02:54:00
9:54 PM,27.0,24.1,89,30.35,5.0,South,5.8,-,N/A,,Clear,180,2013-01-10 03:54:00
10:54 PM,28.0,25.0,88,30.36,5.0,South,4.6,-,N/A,,Clear,180,2013-01-10 04:54:00
11:54 PM,27.0,24.1,89,30.35,5.0,South,6.9,-,N/A,,Clear,170,2013-01-10 05:54:00